Clermont County, Batavia, OH

9:29 PM EDT on September 25, 2017 (GMT -0400)
Clermont County, Batavia

Weather History for KI69 - June, 2013

Change the Weather History Date:

Saturday, June 29, 2013

  Actual Average (KLUK) Record (KLUK)
Temperature  
Mean Temperature 70 °F -  
Max Temperature 77 °F 85 °F 100 °F (2012)
Min Temperature 64 °F 65 °F 55 °F (2000)
Cooling Degree Days 6    
Growing Degree Days 20 (Base 50)    
Moisture  
Dew Point 65 °F    
Average Humidity 88    
Maximum Humidity 100    
Minimum Humidity 61    
Precipitation  
Precipitation 0.38 in - - ()
Sea Level Pressure  
Sea Level Pressure 29.63 in    
Wind  
Wind Speed 3 mph ()    
Max Wind Speed 12 mph    
Max Gust Speed 17 mph    
Visibility 9.5 miles    
Events      
Averages and records for this station are not official NWS values.
T = Trace of Precipitation, MM = Missing Value Source: Averaged Metar Reports

Daily Weather History Graph

Daily Weather History Graph

Search for Another Location

Airport or City:

Trip Planner

Search our weather history database for the weather conditions in past years. The results will help you decide how hot, cold, wet, or windy it might be!

Date:

Astronomy

Jun. 29, 2013 Rise Set
Actual Time 6:13 AM EDT 9:06 PM EDT
Civil Twilight 5:41 AM EDT 9:38 PM EDT
Nautical Twilight 5:01 AM EDT 10:19 PM EDT
Astronomical Twilight 4:14 AM EDT 11:05 PM EDT
Moon 12:38 AM EDT (6/29) 1:20 PM EDT (6/29)
Length of Visible Light 15h 57m
Length of Day
14h 52m
Waning Gibbous, 56% of the Moon is Illuminated
Jun 29
Waning Gibbous
Jun 30
Last Quarter
Jul 8
New
Jul 15
First Quarter
Jul 22
Full

Hourly Weather History & Observations

Time (EDT) Temp. Dew Point Humidity Pressure Visibility Wind Dir Wind Speed Gust Speed Precip Events Conditions
12:16 AM 66.2 °F 64.4 °F 94% 29.64 in 10.0 mi West 6.9 mph - N/A   Mostly Cloudy
12:36 AM 66.2 °F 64.4 °F 94% 29.65 in 10.0 mi NW 4.6 mph - N/A   Mostly Cloudy
12:56 AM 66.2 °F 64.4 °F 94% 29.64 in 10.0 mi Calm Calm - N/A   Clear
1:16 AM 66.2 °F 64.4 °F 94% 29.63 in 10.0 mi WSW 3.5 mph - N/A   Mostly Cloudy
1:36 AM 66.2 °F 64.4 °F 94% 29.62 in 10.0 mi Calm Calm - N/A   Overcast
1:56 AM 64.4 °F 64.4 °F 100% 29.62 in 10.0 mi Calm Calm - N/A   Overcast
2:16 AM 66.2 °F 64.4 °F 94% 29.62 in 10.0 mi WSW 3.5 mph - N/A   Overcast
2:36 AM 64.4 °F 64.4 °F 100% 29.62 in 10.0 mi Calm Calm - N/A   Overcast
2:56 AM 66.2 °F 64.4 °F 94% 29.61 in 10.0 mi SW 4.6 mph - N/A   Overcast
3:16 AM 66.2 °F 64.4 °F 94% 29.61 in 10.0 mi SW 3.5 mph - N/A   Mostly Cloudy
3:36 AM 66.2 °F 64.4 °F 94% 29.60 in 10.0 mi SW 3.5 mph - N/A   Mostly Cloudy
3:56 AM 66.2 °F 64.4 °F 94% 29.60 in 10.0 mi SW 4.6 mph - N/A   Scattered Clouds
4:16 AM 66.2 °F 62.6 °F 88% 29.60 in 10.0 mi WSW 3.5 mph - N/A   Clear
4:36 AM 64.4 °F 62.6 °F 94% 29.60 in 10.0 mi Calm Calm - N/A   Clear
4:56 AM 64.4 °F 62.6 °F 94% 29.60 in 10.0 mi WSW 3.5 mph - N/A   Clear
5:17 AM 64.4 °F 62.6 °F 94% 29.61 in 10.0 mi WSW 3.5 mph - N/A   Clear
5:36 AM 64.4 °F 62.6 °F 94% 29.61 in 10.0 mi Calm Calm - N/A   Clear
5:56 AM 64.4 °F 62.6 °F 94% 29.62 in 10.0 mi WSW 3.5 mph - N/A   Clear
6:17 AM 64.4 °F 62.6 °F 94% 29.62 in 10.0 mi Calm Calm - N/A   Clear
6:36 AM 64.4 °F 62.6 °F 94% 29.62 in 10.0 mi Calm Calm - N/A   Clear
6:56 AM 64.4 °F 62.6 °F 94% 29.63 in 10.0 mi Calm Calm - N/A   Clear
7:17 AM 64.4 °F 64.4 °F 100% 29.63 in 10.0 mi WSW 3.5 mph - N/A   Clear
7:36 AM 66.2 °F 64.4 °F 94% 29.63 in 10.0 mi SW 5.8 mph - N/A   Clear
7:56 AM 66.2 °F 64.4 °F 94% 29.63 in 10.0 mi WSW 6.9 mph - N/A   Clear
8:16 AM 68.0 °F 64.4 °F 88% 29.63 in 10.0 mi WSW 5.8 mph - N/A   Clear
8:36 AM 68.0 °F 64.4 °F 88% 29.63 in 10.0 mi WSW 9.2 mph - N/A   Clear
8:56 AM 68.0 °F 64.4 °F 88% 29.64 in 10.0 mi West 10.4 mph - N/A   Scattered Clouds
9:16 AM 68.0 °F 64.4 °F 88% 29.64 in 10.0 mi WSW 6.9 mph - N/A   Mostly Cloudy
9:36 AM 69.8 °F 64.4 °F 83% 29.64 in 10.0 mi WNW 4.6 mph - N/A   Mostly Cloudy
9:56 AM 71.6 °F 64.4 °F 78% 29.63 in 10.0 mi West 5.8 mph - N/A   Mostly Cloudy
10:16 AM 71.6 °F 64.4 °F 78% 29.63 in 10.0 mi WSW 3.5 mph - N/A   Overcast
10:36 AM 73.4 °F 64.4 °F 73% 29.63 in 10.0 mi Calm Calm - N/A   Mostly Cloudy
10:56 AM 75.2 °F 64.4 °F 69% 29.63 in 10.0 mi West 8.1 mph - N/A   Overcast
11:16 AM 73.4 °F 62.6 °F 69% 29.63 in 10.0 mi WSW 6.9 mph - N/A   Mostly Cloudy
11:36 AM 75.2 °F 62.6 °F 65% 29.63 in 10.0 mi West 8.1 mph - N/A   Scattered Clouds
11:56 AM 77.0 °F 62.6 °F 61% 29.63 in 10.0 mi WSW 11.5 mph 17.3 mph N/A   Scattered Clouds
12:16 PM 77.0 °F 62.6 °F 61% 29.62 in 10.0 mi West 9.2 mph - N/A   Mostly Cloudy
12:36 PM 77.0 °F 62.6 °F 61% 29.63 in 10.0 mi West 8.1 mph - N/A   Overcast
12:56 PM 73.4 °F 62.6 °F 69% 29.63 in 10.0 mi NW 6.9 mph - N/A   Overcast
1:16 PM 73.4 °F 62.6 °F 69% 29.63 in 10.0 mi WSW 5.8 mph - N/A   Mostly Cloudy
1:36 PM 73.4 °F 66.2 °F 78% 29.63 in 10.0 mi SSW 3.5 mph - N/A   Mostly Cloudy
1:56 PM 73.4 °F 64.4 °F 73% 29.63 in 10.0 mi Calm Calm - N/A   Overcast
2:16 PM 69.8 °F 64.4 °F 83% 29.64 in 0.8 mi WSW 6.9 mph - 0.17 in   Overcast
2:36 PM 68.0 °F 64.4 °F 88% 29.63 in 3.0 mi WSW 4.6 mph - 0.29 in   Overcast
2:57 PM 68.0 °F 64.4 °F 88% 29.65 in 5.0 mi WSW 4.6 mph - 0.31 in   Overcast
3:16 PM 68.0 °F 64.4 °F 88% 29.62 in 4.0 mi Calm Calm - 0.07 in   Overcast
3:36 PM 68.0 °F 64.4 °F 88% 29.62 in 10.0 mi Calm Calm - 0.07 in   Overcast
3:57 PM 71.6 °F 68.0 °F 88% 29.63 in 10.0 mi SE 3.5 mph - 0.07 in   Mostly Cloudy
4:16 PM 71.6 °F 68.0 °F 88% 29.63 in 10.0 mi South 4.6 mph - N/A   Scattered Clouds
4:36 PM 73.4 °F 68.0 °F 83% 29.63 in 10.0 mi South 3.5 mph - N/A   Clear
4:56 PM 73.4 °F 66.2 °F 78% 29.63 in 10.0 mi South 5.8 mph - N/A   Scattered Clouds
5:16 PM 73.4 °F 64.4 °F 73% 29.64 in 10.0 mi South 3.5 mph - N/A   Scattered Clouds
5:36 PM 73.4 °F 64.4 °F 73% 29.65 in 10.0 mi South 3.5 mph - N/A   Mostly Cloudy
5:56 PM 71.6 °F 68.0 °F 88% 29.63 in 10.0 mi Calm Calm - N/A   Mostly Cloudy
6:16 PM 71.6 °F 68.0 °F 88% 29.63 in 10.0 mi SSE 3.5 mph - N/A   Mostly Cloudy
6:36 PM 69.8 °F 68.0 °F 94% 29.64 in 10.0 mi Calm Calm - N/A   Mostly Cloudy
6:56 PM 69.8 °F 68.0 °F 94% 29.65 in 10.0 mi SSW 3.5 mph - N/A   Scattered Clouds
7:16 PM 69.8 °F 68.0 °F 94% 29.64 in 10.0 mi South 3.5 mph - N/A   Mostly Cloudy
7:36 PM 69.8 °F 68.0 °F 94% 29.63 in 10.0 mi Calm Calm - N/A   Mostly Cloudy
7:56 PM 69.8 °F 68.0 °F 94% 29.63 in 10.0 mi Calm Calm - N/A   Scattered Clouds
8:16 PM 69.8 °F 68.0 °F 94% 29.63 in 10.0 mi South 3.5 mph - N/A   Clear
8:36 PM 69.8 °F 68.0 °F 94% 29.65 in 10.0 mi Calm Calm - N/A   Scattered Clouds
8:56 PM 69.8 °F 68.0 °F 94% 29.66 in 7.0 mi East 3.5 mph - N/A   Scattered Clouds
9:16 PM 68.0 °F 68.0 °F 100% 29.66 in 10.0 mi ESE 4.6 mph - N/A   Clear
9:37 PM 68.0 °F 68.0 °F 100% 29.66 in 10.0 mi Calm Calm - N/A   Clear
9:56 PM 68.0 °F 68.0 °F 100% 29.66 in 10.0 mi SE 3.5 mph - N/A   Scattered Clouds
10:16 PM 68.0 °F 68.0 °F 100% 29.67 in 10.0 mi Calm Calm - N/A   Scattered Clouds
10:37 PM 68.0 °F 68.0 °F 100% 29.68 in 10.0 mi Calm Calm - N/A   Mostly Cloudy
10:56 PM 68.0 °F 68.0 °F 100% 29.68 in 10.0 mi WSW 3.5 mph - N/A   Overcast
11:16 PM 68.0 °F 66.2 °F 94% 29.68 in 10.0 mi SSW 3.5 mph - N/A   Scattered Clouds
11:37 PM 68.0 °F 66.2 °F 94% 29.67 in 10.0 mi SW 4.6 mph - N/A   Clear
11:56 PM 68.0 °F 66.2 °F 94% 29.68 in 7.0 mi WSW 4.6 mph - N/A   Scattered Clouds